Caldwell, NJ

3:49 AM EDT on June 24, 2017 (GMT -0400)
Essex County

Weather History for KCDW - May, 2014

Change the Weather History Date:

Thursday, May 1, 2014

  Actual Average Record
Temperature  
Mean Temperature 62 °F -  
Max Temperature 77 °F 67 °F 88 °F (1974)
Min Temperature 48 °F 43 °F 26 °F (1978)
Degree Days  
Heating Degree Days 2    
Growing Degree Days 12 (Base 50)    
Moisture  
Dew Point 52 °F    
Average Humidity 84    
Maximum Humidity 100    
Minimum Humidity 31    
Precipitation  
Precipitation 0.19 in - - ()
Sea Level Pressure  
Sea Level Pressure 29.81 in    
Wind  
Wind Speed 4 mph (NNW)    
Max Wind Speed 13 mph    
Max Gust Speed 17 mph    
Visibility 5 miles    
Events Fog , Rain    
Averages and records for this station are not official NWS values.
T = Trace of Precipitation, MM = Missing Value Source: NWS Daily Summary

Daily Weather History Graph

Daily Weather History Graph

Search for Another Location

Airport or City:

Trip Planner

Search our weather history database for the weather conditions in past years. The results will help you decide how hot, cold, wet, or windy it might be!

Date:

Astronomy

May. 01, 2014 Rise Set
Actual Time 5:55 AM EDT 7:53 PM EDT
Civil Twilight 5:25 AM EDT 8:23 PM EDT
Nautical Twilight 4:49 AM EDT 9:00 PM EDT
Astronomical Twilight 4:10 AM EDT 9:39 PM EDT
Moon 7:40 AM EDT (5/1) 10:25 PM EDT (5/1)
Length of Visible Light 14h 57m
Length of Day
13h 58m
Waxing Crescent, 6% of the Moon is Illuminated
May 1
Waxing Crescent
May 6
First Quarter
May 14
Full
May 21
Last Quarter
May 28
New

Hourly Weather History & Observations

Time (EDT) Temp. Dew Point Humidity Pressure Visibility Wind Dir Wind Speed Gust Speed Precip Events Conditions
12:53 AM 48.9 °F 48.0 °F 97% 29.97 in 8.0 mi Variable 3.5 mph - 0.03 in Rain Light Rain
1:27 AM 48.2 °F 48.2 °F 100% 29.92 in 7.0 mi NE 5.8 mph - 0.00 in Rain Light Rain
1:53 AM 48.9 °F 48.9 °F 100% 29.92 in 2.0 mi Variable 3.5 mph - 0.00 in Rain Light Rain
2:05 AM 48.2 °F 48.2 °F 100% 29.89 in 3.0 mi ENE 5.8 mph - 0.01 in Rain Light Rain
2:21 AM 50.0 °F 48.2 °F 94% 29.87 in 2.0 mi ENE 6.9 mph - 0.04 in Rain Light Rain
2:37 AM 50.0 °F 48.2 °F 94% 29.86 in 3.0 mi NE 5.8 mph - 0.05 in Rain Light Rain
2:44 AM 50.0 °F 50.0 °F 100% 29.85 in 2.5 mi ENE 8.1 mph - 0.07 in Rain Rain
2:53 AM 50.0 °F 50.0 °F 100% 29.87 in 2.5 mi NE 6.9 mph - 0.08 in Rain Light Rain
3:01 AM 50.0 °F 50.0 °F 100% 29.85 in 5.0 mi Variable 3.5 mph - 0.00 in   Overcast
3:12 AM 51.8 °F 50.0 °F 94% 29.85 in 1.8 mi NE 4.6 mph - 0.00 in   Overcast
3:29 AM 51.8 °F 50.0 °F 94% 29.84 in 2.0 mi Calm Calm - 0.00 in   Overcast
3:53 AM 52.0 °F 51.1 °F 97% 29.85 in 1.8 mi NE 3.5 mph - 0.00 in   Overcast
4:36 AM 51.8 °F 51.8 °F 100% 29.82 in 0.8 mi Calm Calm - 0.01 in Rain Light Rain
4:46 AM 51.8 °F 51.8 °F 100% 29.82 in 1.5 mi Calm Calm - 0.01 in Rain Light Rain
4:53 AM 51.1 °F 51.1 °F 100% 29.83 in 2.5 mi NNE 3.5 mph - 0.01 in   Overcast
5:24 AM 51.8 °F 51.8 °F 100% 29.81 in 1.8 mi Calm Calm - 0.04 in Rain Rain
5:31 AM 51.8 °F 51.8 °F 100% 29.81 in 3.0 mi Calm Calm - 0.05 in Rain Light Rain
5:53 AM 51.1 °F 51.1 °F 100% 29.83 in 2.5 mi ENE 3.5 mph - 0.05 in Rain Light Rain
6:13 AM 51.8 °F 51.8 °F 100% 29.81 in 1.2 mi NNW 3.5 mph - 0.00 in Rain Light Rain
6:41 AM 51.8 °F 51.8 °F 100% 29.81 in 2.0 mi Calm Calm - 0.01 in Rain Light Rain
6:53 AM 52.0 °F 51.1 °F 97% 29.83 in 3.0 mi Calm Calm - 0.02 in Rain Light Rain
7:53 AM 53.1 °F 52.0 °F 96% 29.81 in 3.0 mi Calm Calm - 0.00 in   Overcast
8:14 AM 53.6 °F 53.6 °F 100% 29.80 in 2.0 mi Calm Calm - N/A   Overcast
8:25 AM 53.6 °F 53.6 °F 100% 29.80 in 1.8 mi Calm Calm - N/A   Overcast
8:45 AM 53.6 °F 53.6 °F 100% 29.81 in 0.8 mi NW 4.6 mph - N/A   Overcast
8:53 AM 54.0 °F 53.1 °F 97% 29.82 in 0.8 mi Calm Calm - N/A   Overcast
9:30 AM 53.6 °F 53.6 °F 100% 29.81 in 0.2 mi Calm Calm - N/A Fog Fog
9:53 AM 55.0 °F 55.0 °F 100% 29.82 in 0.2 mi Calm Calm - N/A Fog Fog
10:00 AM 55.4 °F 55.4 °F 100% 29.80 in 1.0 mi Calm Calm - N/A   Overcast
10:13 AM 57.2 °F 57.2 °F 100% 29.80 in 3.0 mi WSW 3.5 mph - N/A   Overcast
10:49 AM 59.0 °F 57.2 °F 94% 29.80 in 7.0 mi SSW 3.5 mph - N/A   Overcast
10:53 AM 60.1 °F 59.0 °F 96% 29.82 in 8.0 mi Variable 3.5 mph - N/A   Overcast
11:12 AM 62.6 °F 59.0 °F 88% 29.80 in 9.0 mi Calm Calm - N/A   Mostly Cloudy
11:24 AM 62.6 °F 59.0 °F 88% 29.80 in 10.0 mi Calm Calm - N/A   Mostly Cloudy
11:27 AM 62.6 °F 59.0 °F 88% 29.80 in 10.0 mi Calm Calm - N/A   Mostly Cloudy
11:53 AM 64.9 °F 57.9 °F 78% 29.81 in 10.0 mi Variable 5.8 mph - N/A   Overcast
12:41 PM 68.0 °F 55.4 °F 64% 29.78 in 10.0 mi WNW 6.9 mph - N/A   Partly Cloudy
12:53 PM 69.1 °F 55.9 °F 63% 29.79 in 10.0 mi NW 6.9 mph - N/A   Clear
1:53 PM 72.0 °F 55.0 °F 55% 29.76 in 10.0 mi Variable 4.6 mph - N/A   Partly Cloudy
2:53 PM 75.0 °F 52.0 °F 44% 29.74 in 10.0 mi SW 8.1 mph - N/A   Scattered Clouds
3:53 PM 77.0 °F 44.1 °F 31% 29.72 in 10.0 mi West 8.1 mph 16.1 mph N/A   Clear
4:53 PM 77.0 °F 46.0 °F 33% 29.71 in 10.0 mi West 8.1 mph 17.3 mph N/A   Partly Cloudy
5:53 PM 75.9 °F 46.9 °F 36% 29.70 in 10.0 mi WSW 10.4 mph 16.1 mph N/A   Clear
6:53 PM 75.0 °F 45.0 °F 34% 29.69 in 10.0 mi SW 11.5 mph 17.3 mph N/A   Clear
7:53 PM 72.0 °F 46.9 °F 41% 29.70 in 10.0 mi Variable 3.5 mph - N/A   Scattered Clouds
8:53 PM 70.0 °F 48.0 °F 46% 29.70 in 10.0 mi Calm Calm - N/A   Mostly Cloudy
9:53 PM 66.9 °F 52.0 °F 59% 29.73 in 10.0 mi WNW 12.7 mph 17.3 mph 0.00 in   Mostly Cloudy
10:53 PM 64.9 °F 51.1 °F 61% 29.73 in 10.0 mi WNW 3.5 mph - N/A   Overcast
11:53 PM 64.9 °F 44.1 °F 47% 29.75 in 10.0 mi WNW 10.4 mph - N/A   Overcast